アトラス彗星

C/2023 F3 ( ATLAS )

English version
Home page
Updated on December 1, 2023

---------------------------------------------------------------------

・ プロフィール

発見日 2023年3月28日
発見光度 18.8等
発見者 Asteroid Terrestrial-Impact Last Alert System (ATLAS) search program

・ 写真集

・ 軌道要素

Epoch 2023 Sept. 13.0 TT = JDT 2460200.5
T 2025 Feb. 2.87168 TT                                  Rudenko
q   5.1898288            (2000.0)            P               Q
z  -0.0008131      Peri.  265.54762     -0.75314445     -0.39253658
 +/-0.0000217      Node   109.44398     -0.09744804     +0.86018663
e   1.0042198      Incl.  145.95537     -0.65059766     +0.32556718
>From 150 observations 2023 Mar. 28-Sept. 14, mean residual 0".5.

・ 星図

・ 光度変化

        m1 = 5.0 + 5 logΔ + 10.0 log r

---------------------------------------------------------------------

軌道要素はM.P.E.C. 2023-S260に掲載されたものです。
星図はステラナビゲータ Ver.11 (アストロアーツ) で作成したものです。
光度グラフはComet for Windowsで作成したものです。

---------------------------------------------------------------------

Copyright(C) Seiichi Yoshida (comet@aerith.net). All rights reserved.